Retour au catalogue

STARLINK-36031

ActifCommunicationsVLEO
NORAD 66593·PAYLOAD·🇺🇸 United States

Lancé Nov 22, 2025 depuis Cape Canaveral Space Force Station

Loading…

Prochains Passages (prochaines 24 heures)

TLE

FraisSource: CelesTrak SupGP

Époque: Sep 15, 2026, 02:55 UTC

1 66593C 25270F   26258.12201389 -.00024045  00000+0 -87083-3 0  2587
2 66593  43.0008  66.1704 0001537 267.5776 297.5263 15.27593414    12

Suivez STARLINK-36031 en temps réel avec AllMySat

Download on the App Store